164  
ASUS45 KCYS 252310  
RWRWY  
 
WYOMING REGIONAL WEATHER ROUNDUP  
NATIONAL WEATHER SERVICE CHEYENNE WY  
400 PM MST SAT JAN 25 2020  
 
NOTE: "FAIR" INDICATES FEW OR NO CLOUDS BELOW 12,000 FEET  
WITH NO SIGNIFICANT WEATHER AND/OR S TO VISIBILITY
.  
 
WYZ001-260000-  
YELLOWSTONE NATIONAL PARK  
 
CITY SKY/WX TMP DP RH WIND PRES REMARKS
 
LK YELLOWSTONE N/A 26 21 81 VRB3 30.06R  
W YELLOWSTONE NOT AVBL  
 

 
WYZ002>013-054>058-071-098>099-260000-  
NORTHERN WYOMING  
 
CITY SKY/WX TMP DP RH WIND PRES REMARKS
 
JACKSON FLURRIES 30 28 93 S12 30.08S WCI 21  
CODY CLOUDY 43 17 35 W16G37 29.96R  
GREYBULL FAIR 47 20 34 S3 29.94R  
WORLAND FAIR 45 23 42 CALM 29.94F  
SHERIDAN FAIR 49 25 39 NE3 29.92S  
BUFFALO FAIR 42 23 46 E5 29.92S  
GILLETTE FAIR 42 25 50 S3 29.93S  
HULETT FAIR 39 28 65 SW9G16 29.93 WCI 33  
NEWCASTLE CLOUDY 37 23 56 N6 29.97 WCI 33  
 

 
WYZ014>020-022>026-101>103-260000-  
CENTRAL WYOMING  
 
CITY SKY/WX TMP DP RH WIND PRES REMARKS
 
BIG PINEY FAIR 23 19 85 CALM 30.11S  
PINEDALE FAIR 28 23 80 W5 30.11S WCI 23  
DUBOIS FLURRIES 32 21 64 NW16G25 30.00 WCI 21  
LANDER FAIR 37 24 59 S9 29.96F WCI 30  
RIVERTON FAIR 37 25 61 SW9 29.96F WCI 30  
CASPER FAIR 40 21 46 SW22G32 29.97R WCI 30  
DOUGLAS FAIR 45 19 35 W22 29.96R  
 

 
WYZ021-027>030-104>119-260000-  
SOUTHERN WYOMING  
 
CITY SKY/WX TMP DP RH WIND PRES REMARKS
 
EVANSTON PTSUNNY 32 24 72 W14 30.14S WCI 22  
KEMMERER FAIR 32 27 80 W12 30.12 WCI 23  
ROCK SPRINGS PTSUNNY 34 26 72 W22G31 30.11R WCI 22  
DIXON MOCLDY 34 25 70 S9G16 30.17R WCI 27  
RAWLINS PTSUNNY 32 23 69 W14G26 30.05S WCI 22  
SARATOGA FAIR 34 23 64 W10 30.10R WCI 26  
LARAMIE FAIR 36 15 42 SW26G32 29.97F WCI 24  
CHEYENNE FAIR 40 17 39 W20G32 29.98S WCI 30  
TORRINGTON FAIR 48 20 32 W20G29 29.93S  
PINE BLUFFS FAIR 45 19 36 NW16G22 29.98R  
 

 
 
 
CLICK HERE TO GO TO PREVIOUS BULLETINS.

The Nexlab WY Page Main Text Page